Regional Weather Roundup
Issued by NWS

Home | Current Version | Previous Version | Graphics & Text | Print | Product List | Glossary On
Versions: 1 2 3 4 5 6 7 8 9 10 11 12 13 14 15 16 17 18 19 20 21 22 23 24 25 26 27 28 29 30 31 32 33 34 35 36 37 38 39 40 41 42 43 44 45 46 47 48 49 50
867
ASUS45 KABQ 302110
RWRNM
NEW MEXICO REGIONAL WEATHER ROUNDUP
NATIONAL WEATHER SERVICE ALBUQUERQUE NM
300 PM MDT SAT APR 30 2016

NOTE: "FAIR" MEANS FEW OR NO CLOUDS BELOW 12,000 FEET AGL WITH NO
       SIGNIFICANT WEATHER OR OBSTRUCTIONS TO VISION.

      THIS PRODUCT IS RELEASED AS TWO VERSIONS.  ONE VERSION NEAR
      THE TOP OF THE HOUR CONTAINING PRELIMINARY DATA FROM ALBUQUERQUE
      AND OTHER STATIONS.  A FINAL VERSION WITH ADDITIONAL DATA IS
      ISSUED ABOUT 10 MINUTES AFTER THE HOUR.

NMZ501-503-504-510>518-302200-
NORTHWEST PLATEAU/NORTHCENTRAL MOUNTAINS

CITY           SKY/WX    TMP DP  RH WIND       PRES   REMARKS
FARMINGTON     PTSUNNY   59  28  30 MISG      29.81F
LOS ALAMOS     PTSUNNY   52  21  29 W5        29.89R
SANTA FE       PTSUNNY   57  30  35 N13G20    29.85S
TAOS           CLOUDY    50  30  46 E9        29.87S
ANGEL FIRE     FAIR      42  32  68 SW5       29.91F

$$
NMZ402-403-502-505>509-302200-
WESTCENTRAL MOUNTAINS/SOUTHWEST MOUNTAINS

CITY           SKY/WX    TMP DP  RH WIND       PRES   REMARKS
GALLUP         LGT RAIN  52  39  61 NE13      29.87R
GRANTS         LGT RAIN  46  43  89 N14       29.90R
SILVER CITY      N/A     66  21  18 SW16      29.82F

$$
NMZ407-409-411-412-302200-
SOUTHERN DESERTS

CITY           SKY/WX    TMP DP  RH WIND       PRES   REMARKS
LORDSBURG      FAIR      73  27  17 CALM      29.75F
DEMING         FAIR      74  21  13 W8        29.76F
LAS CRUCES     FAIR      73  21  14 SW14G21   29.80F
HOLLOMAN AFB   FAIR      72  26  17 VRB3      29.77F
ALAMOGORDO     FAIR      72  25  17 SW9G17    29.79F
T OR C         FAIR      70  24  17 S14G23    29.77F

$$
NMZ519>523-302200-
CENTRAL VALLEYS/CENTRAL HIGHLANDS

CITY           SKY/WX    TMP DP  RH WIND       PRES   REMARKS
ALBUQUERQUE    PTSUNNY   62  34  35 N14       29.83F
DOUBLE EAGLE   PTSUNNY   55  36  47 N9G17     29.87S
MORIARTY ARPT  FAIR      64  25  22 W13G18    29.86F
CLINES CORNERS PTSUNNY   56  25  30 W14G22    29.85F
BELEN          FAIR      64  28  25 NW5       29.81F
SOCORRO        CLOUDY    68  27  21 SE10      29.79F

$$
NMZ524>526-539-540-302200-
SOUTHCENTRAL MOUNTAINS

CITY           SKY/WX    TMP DP  RH WIND       PRES   REMARKS
RUIDOSO          N/A     57  19  23 SW15      29.89F

$$
NMZ527>531-302200-
NORTHEAST HIGHLANDS/NORTHEAST PLAINS

CITY           SKY/WX    TMP DP  RH WIND       PRES   REMARKS
LAS VEGAS      FAIR      53  37  54 SE20G26   29.85F
RATON          LGT RAIN  43  35  73 E9        29.89R
CLAYTON        CLOUDY    51  32  48 N12       29.90S

$$
NMZ532>537-302200-
EASTCENTRAL PLAINS

CITY           SKY/WX    TMP DP  RH WIND       PRES   REMARKS
TUCUMCARI      FAIR      63  38  39 MISG      29.84F
CANNON AFB     PTSUNNY   65  38  37 E9        29.82F
CLOVIS AIRPORT PTSUNNY   63  39  42 NE10      29.85S

$$
NMZ028-029-538-302200-
SOUTHEAST PLAINS

CITY           SKY/WX    TMP DP  RH WIND       PRES   REMARKS
ROSWELL        FAIR      76  26  15 SE17      29.75F
ARTESIA        FAIR      77  28  16 E8G16     29.74F
CARLSBAD       FAIR      80  24  12 W13G24    29.74F
HOBBS          MOSUNNY   75  25  15 SW9G17    29.80F


$$




USA.gov is the U.S. government's official web portal to all federal, state and local government web resources and services.